Nashville, TN

4:31 PM CDT on September 19, 2019 (GMT -0500)
Nashville International

Weather History for KBNA - July, 2019

Change the Weather History Date:

Wednesday, July 17, 2019

  Actual Average Record
Temperature  
Mean Temperature 83 °F 80 °F  
Max Temperature 90 °F 89 °F 101 °F (1902)
Min Temperature 76 °F 70 °F 56 °F (1945)
Degree Days  
Heating Degree Days 0    
Month to date heating degree days 0  
Since 1 June heating degree days 0  
Since 1 July heating degree days 0  
Cooling Degree Days 18    
Month to date cooling degree days 307  
Year to date cooling degree days 1012  
Since 1 June cooling degree days 676  
Growing Degree Days 32 (Base 50)    
Moisture  
Dew Point 72 °F    
Average Humidity 73    
Maximum Humidity 82    
Minimum Humidity 59    
Precipitation  
Precipitation 0.01 in 0.12 in 1.32 in (1994)
Month to date precipitation 1.02 2.08  
Year to date precipitation 38.83 27.52  
Sea Level Pressure  
Sea Level Pressure 30.01 in    
Wind  
Wind Speed 7 mph (SW)    
Max Wind Speed 22 mph    
Max Gust Speed 30 mph    
Visibility 10 miles    
Events Rain    
T = Trace of Precipitation, MM = Missing Value Source: NWS Daily Summary

Daily Weather History Graph

Daily Weather History Graph

Search for Another Location

Airport or City:

Astronomy

Jul. 17, 2019 Rise Set
Actual Time 5:42 AM CDT 8:02 PM CDT
Civil Twilight 5:13 AM CDT 8:32 PM CDT
Nautical Twilight 4:36 AM CDT 9:08 PM CDT
Astronomical Twilight 3:57 AM CDT 9:47 PM CDT
Moon 8:51 PM CDT (7/17) 6:14 AM CDT (7/17)
Length of Visible Light 15h 19m
Length of Day
14h 20m
Full, 99% of the Moon is Illuminated
Jul 17
Full
Jul 24
Last Quarter
Jul 31
New
Aug 7
First Quarter
Aug 15
Full

Hourly Weather History & Observations

Time (CDT) Temp. Heat Index Dew Point Humidity Pressure Visibility Wind Dir Wind Speed Gust Speed Precip Events Conditions
12:53 AM 77.0 °F - 70.0 °F 79% 30.00 in 10.0 mi SSW 10.4 mph - N/A   Overcast
1:53 AM 77.0 °F - 70.0 °F 79% 29.99 in 10.0 mi SSW 6.9 mph - N/A   Overcast
2:53 AM 77.0 °F - 70.0 °F 79% 29.99 in 10.0 mi SSW 8.1 mph - N/A   Overcast
3:53 AM 75.9 °F - 70.0 °F 82% 29.99 in 10.0 mi SSW 8.1 mph - N/A   Mostly Cloudy
4:35 AM 77.0 °F - 69.1 °F 76% 30.01 in 10.0 mi SSW 10.4 mph - N/A   Mostly Cloudy
4:53 AM 75.9 °F - 69.1 °F 79% 29.99 in 10.0 mi SSW 10.4 mph - N/A   Overcast
5:27 AM 75.9 °F - 69.1 °F 79% 30.02 in 10.0 mi SSW 6.9 mph - N/A   Overcast
5:53 AM 75.9 °F - 70.0 °F 82% 30.00 in 10.0 mi SW 8.1 mph - N/A   Overcast
6:53 AM 75.9 °F - 70.0 °F 82% 30.01 in 10.0 mi SSW 5.8 mph - N/A   Overcast
7:53 AM 77.0 °F - 71.1 °F 82% 30.02 in 10.0 mi SSW 10.4 mph - N/A   Overcast
8:53 AM 77.0 °F - 71.1 °F 82% 30.04 in 10.0 mi SSW 8.1 mph - 0.00 in Rain Light Rain
9:53 AM 77.0 °F - 72.0 °F 84% 30.04 in 10.0 mi SW 5.8 mph - 0.01 in   Overcast
10:53 AM 80.1 °F 84.2 °F 73.0 °F 79% 30.06 in 10.0 mi SW 5.8 mph - N/A   Overcast
11:24 AM 82.0 °F 87.4 °F 73.0 °F 74% 30.07 in 10.0 mi Variable 5.8 mph - N/A   Overcast
11:53 AM 82.9 °F 88.8 °F 73.0 °F 72% 30.05 in 10.0 mi SW 8.1 mph - N/A   Mostly Cloudy
12:53 PM 86.0 °F 93.0 °F 73.0 °F 65% 30.05 in 10.0 mi Variable 5.8 mph - N/A   Mostly Cloudy
1:53 PM 87.1 °F 93.6 °F 72.0 °F 61% 30.03 in 10.0 mi WSW 5.8 mph - N/A   Mostly Cloudy
2:53 PM 87.1 °F 93.6 °F 72.0 °F 61% 30.00 in 10.0 mi SW 6.9 mph - N/A   Mostly Cloudy
3:53 PM 88.0 °F 95.6 °F 73.0 °F 61% 29.99 in 10.0 mi SSW 6.9 mph - N/A   Mostly Cloudy
4:53 PM 89.1 °F 97.0 °F 73.0 °F 59% 29.98 in 10.0 mi WSW 5.8 mph - N/A   Mostly Cloudy
5:53 PM 89.1 °F 98.0 °F 73.9 °F 61% 29.98 in 10.0 mi Variable 4.6 mph - N/A   Mostly Cloudy
6:53 PM 87.1 °F 95.4 °F 73.9 °F 65% 29.97 in 10.0 mi SW 4.6 mph - N/A   Mostly Cloudy
7:53 PM 84.9 °F 91.4 °F 73.0 °F 67% 29.99 in 10.0 mi SW 4.6 mph - N/A   Mostly Cloudy
8:53 PM 82.9 °F 90.2 °F 75.0 °F 77% 29.99 in 10.0 mi SSW 5.8 mph - N/A   Mostly Cloudy
9:53 PM 82.0 °F 88.6 °F 75.0 °F 79% 30.01 in 10.0 mi SW 4.6 mph - N/A   Mostly Cloudy
10:53 PM 82.0 °F 88.6 °F 75.0 °F 79% 30.02 in 10.0 mi SSW 8.1 mph - N/A   Scattered Clouds
11:53 PM 79.0 °F - 69.1 °F 72% 30.02 in 10.0 mi West 16.1 mph 29.9 mph N/A   Mostly Cloudy